Location: Heidgraben
(53.7081°N, 9.6576°E)
Time: 04:09:50
(UTC+00:00)

ATLAS CENTAUR R/B - Pass Details

Date: 05 July 2020
Orbit: 475 x 672 km, 64.7° (Epoch: 13 July)

Event Time Altitude Azimuth Distance (km) Brightness Sun altitude
Rises 21:50:46 0° 307° (NW) 2,574 5.8 -10.9°
Reaches altitude 10° 21:53:20 10° 290° (WNW) 1,669 4.4 -11.0°
Maximum altitude 21:56:04 20° 242° (WSW) 1,166 2.9 -11.2°
Enters shadow 21:58:26 12° 197° (SSW) 1,545 3.1 -11.3°
